Regional Weather Roundup
Issued by NWS

Home | Current Version | Previous Version | Graphics & Text | Print | Product List | Glossary On
Versions: 1 2 3 4 5 6 7 8 9 10 11 12 13 14 15 16 17 18 19 20 21 22 23 24 25 26 27 28 29 30 31 32 33 34 35 36 37 38 39 40 41 42 43 44 45 46 47 48 49 50
000
ASUS43 KIND 030709
RWRIN

WEATHER ROUNDUP FOR INDIANA
NATIONAL WEATHER SERVICE INDIANAPOLIS IN
300 AM EDT WED SEP 03 2014

NOTE: "FAIR" INDICATES FEW OR NO CLOUDS BELOW 12,000 FEET WITH NO
SIGNIFICANT WEATHER AND/OR OBSTRUCTIONS TO VISIBILITY.

* - STATION DOES NOT REPORT WEATHER SUCH AS PRECIPITATION OR FOG.

+ - STATION NOT QUALITY CONTROLLED BY THE NATIONAL WEATHER SERVICE.
    USE DATA WITH CAUTION...ESPECIALLY DEWPOINT AND RELATIVE
    HUMIDITY OBSERVATIONS.

INZ001>003-010>013-019-020-030800-
NORTHWEST INDIANA

CITY           SKY/WX    TMP DP  RH WIND       PRES   REMARKS
GARY /AIRPORT/ PTCLDY    67  62  82 CALM      29.98F
KNOX *+        CLEAR     61  59  92 CALM      29.98S
LA PORTE +     CLEAR     60  60 100 CALM      29.99S
MICHIGAN CITY+ CLEAR     61  61 100 CALM      29.98F FOG
MONTICELLO +   CLEAR     63  63 100 S3        29.99S
RENSSELAER +   CLOUDY    64  64 100 CALM      30.00S
VALPARAISO     CLEAR     64  61  90 SW3       29.99F

$$

LMZ046-743>745-030800-
SOUTHERN LAKE MICHIGAN

STATION/POSITION TIME  TEMP WIND        PRES
                       AIR  DIR/SP/G
                 (UTC) (F)  (DEG/KT/KT) (MB)
MICHIGAN CITY    0700   70  190/ 10/ 11   N/A

$$

INZ004-005-014>016-021>024-030800-
NORTH CENTRAL INDIANA

CITY           SKY/WX    TMP DP  RH WIND       PRES   REMARKS
GOSHEN         CLEAR     61  59  93 CALM      29.99S FOG
LOGANSPORT +   FOG       63  61  94 CALM      30.01S VSB 1/2
PERU/GRISSOM   CLEAR     64 N/A N/A W2        30.00S
ROCHESTER +    CLEAR     66  66 100 S3        30.00S
SOUTH BEND     CLEAR     63  59  87 CALM      29.99S
WARSAW +       CLEAR     59  59 100 CALM      29.99F FOG

$$

INZ006>009-017-018-025>027-030800-
NORTHEAST INDIANA

CITY           SKY/WX    TMP DP  RH WIND       PRES   REMARKS
ANGOLA *+      CLOUDY    59  50  72 CALM      30.00S VSB 1/4
AUBURN +       CLEAR     61  59  94 CALM      30.00S FOG
FORT WAYNE     CLEAR     64  63  96 CALM      30.00S FOG
HUNTINGTON +   CLEAR     65  65  99 CALM      30.00S FOG

$$

INZ028-029-035-036-043>045-051>053-030800-
WEST CENTRAL INDIANA

CITY           SKY/WX    TMP DP  RH WIND       PRES   REMARKS
GREENCASTLE +    N/A     64  64 100 CALM      30.02F FOG
LAFAYETTE      FOG       64  64 100 W3        29.99F VSB 1
TERRE HAUTE    CLEAR     63  62  97 CALM      30.01F FOG

$$

INZ030>032-037>040-046>048-054>057-064-065-030800-
CENTRAL INDIANA

CITY           SKY/WX    TMP DP  RH WIND       PRES   REMARKS
CP ATTERBURY + FOG       63  61  94 CALM      30.01S VSB<1/4
FRANKFORT +    CLEAR    N/A N/A N/A SW3       30.02F HAZE
INDIANAPOLIS   PTCLDY    65  64  97 W6        30.00F
-EAGLE CREEK   CLEAR     68  64  87 CALM      30.00F
KOKOMO *+      CLEAR     66  63  88 W7        30.00F
MARION +       CLEAR     62  62  99 CALM      30.01S FOG
MT COMFORT *+  CLEAR     64 N/A N/A W3        30.01S
SHELBYVILLE    FOG       64  62  93 CALM      30.00F VSB 1/4
ZIONSVILLE +   CLEAR     65  62  90 CALM      30.02F

$$

INZ033-034-041-042-049-050-058-059-030800-
EAST CENTRAL INDIANA

CITY           SKY/WX    TMP DP  RH WIND       PRES   REMARKS
MUNCIE         CLEAR     64  61  90 CALM      30.01S FOG

$$

INZ060-061-067>069-081>083-085>088-030800-
SOUTHWEST INDIANA

CITY           SKY/WX    TMP DP  RH WIND       PRES   REMARKS
EVANSVILLE     PTCLDY    69  67  93 CALM      30.00F
WASHINGTON +   CLOUDY    62  62 100 CALM      30.00S FOG

$$

INZ062-063-066-070>080-084-089>092-030800-
SOUTH CENTRAL AND SOUTHEAST INDIANA

CITY           SKY/WX    TMP DP  RH WIND       PRES   REMARKS
BLOOMINGTON    FOG       61  60  97 CALM      30.01F VSB 3/4
NORTH VERNON + FOG       63  63 100 CALM      30.02S VSB 1/2

$$




USA.gov is the U.S. government's official web portal to all federal, state and local government web resources and services.